Dewpoint
38 39 39 40 40 40 39 40 40 40 41 41 41 41 42 42 42 42 42 42 42 42 43 43 43 43 43 44 44 44 44 44 43 44 44 44 44 44 45 45 46 46 47 48 49 51 53 55 59 61 62 62 61 61 62 62 62 62 62 62 62 62 62 62 62 62 61 61 61
37 37 38 39 39 39 39 39 39 39 39 40 40 40 40 41 40 41 41 41 41 42 42 42 42 42 42 43 43 43 43 43 42 43 43 43 43 43 44 44 45 46 46 47 48 49 51 53 56 57 58 59 59 60 60 60 60 61 61 61 62 62 62 62 61 62 62 62 62
37 37 37 37 37 37 38 38 38 38 38 38 38 39 39 39 39 39 40 40 40 41 41 41 42 42 42 42 42 43 42 42 42 42 42 42 42 42 43 43 44 44 45 46 46 47 49 51 52 52 51 51 51 50 51 51 53 56 59 60 61 62 61 61 61 61 62 62 62
36 36 36 36 36 36 37 37 37 37 37 37 37 37 37 38 38 38 39 39 39 40 40 40 41 41 42 42 42 42 42 42 42 42 41 41 41 42 42 42 42 43 44 44 45 46 46 47 48 47 47 46 46 45 46 46 48 52 55 57 59 60 60 61 61 61 62 61 61
36 36 36 36 36 36 36 36 36 36 36 36 36 36 36 37 37 37 38 38 38 39 39 39 40 41 41 41 42 42 42 42 42 41 41 41 41 41 41 42 42 42 43 43 44 44 45 45 45 45 45 45 45 45 45 46 47 50 51 51 52 52 53 55 58 60 60 60 61
36 36 35 35 35 35 35 35 35 35 35 35 35 35 36 36 36 36 37 37 37 38 38 39 39 40 40 41 41 41 41 41 41 41 41 40 40 41 41 41 41 42 42 42 42 43 44 44 44 44 44 44 44 44 45 45 46 47 46 46 46 46 46 47 49 51 52 53 54
36 36 35 35 35 35 35 35 35 35 35 35 34 35 35 35 36 36 36 37 37 38 38 39 39 39 39 40 40 41 41 41 41 41 41 40 40 40 40 40 41 41 41 41 42 42 42 43 43 43 43 43 43 43 43 44 45 45 44 44 44 45 45 45 45 46 46 44 45
35 35 36 36 36 35 35 35 35 34 34 34 34 34 34 35 35 35 36 37 37 37 38 38 38 38 38 39 39 40 40 40 40 40 40 40 40 40 40 40 40 40 40 41 41 41 41 42 42 42 42 42 42 42 42 43 43 43 43 43 43 44 44 44 45 44 44 44 43
34 35 35 35 35 35 35 35 35 34 33 33 33 33 33 34 34 34 35 36 37 37 37 38 37 37 38 38 39 39 40 40 40 40 40 40 40 40 40 40 40 40 40 40 40 40 40 41 41 41 41 42 42 42 42 42 42 42 42 42 42 43 43 44 44 44 43 43 43
33 33 34 34 34 35 35 35 35 34 34 33 33 33 33 34 34 33 34 34 36 36 36 37 37 37 37 37 38 39 39 40 40 40 40 40 40 40 40 40 40 40 40 40 40 40 40 40 40 40 41 41 41 41 41 41 41 41 41 42 42 42 42 42 42 42 42 42 42
33 33 33 34 34 35 35 34 35 34 34 34 34 34 33 34 33 33 33 34 34 34 35 36 37 37 37 37 37 38 39 39 39 40 40 40 40 40 40 40 40 39 39 40 40 40 39 39 39 39 40 40 40 40 40 41 40 40 40 41 41 41 41 41 42 42 42 42 42
32 33 33 33 34 34 34 34 34 34 34 34 34 34 34 33 34 34 34 33 33 33 34 36 36 36 37 37 37 37 38 38 39 39 39 39 40 40 40 40 39 39 39 39 39 39 39 39 39 39 39 39 40 40 40 40 40 40 40 40 40 40 40 41 41 42 42 42 41
32 32 33 33 33 33 33 34 34 34 34 34 34 34 34 34 34 34 33 33 33 33 34 35 35 36 36 36 37 37 37 38 38 38 39 39 39 39 40 40 39 39 39 39 39 39 39 39 38 38 38 39 39 40 40 40 40 40 39 39 39 40 40 40 41 41 41 41 40
31 32 32 32 33 33 33 33 33 34 33 33 34 34 34 34 34 34 34 33 33 33 33 34 34 35 36 36 36 36 37 37 37 37 38 38 39 39 39 39 39 39 39 39 39 39 39 39 38 38 38 38 39 39 39 40 40 39 39 39 39 39 40 40 41 41 41 40 40
30 31 31 31 31 32 32 32 33 33 33 32 32 32 32 32 33 33 33 33 33 33 32 31 32 33 34 35 35 36 36 36 37 37 37 38 38 38 39 39 39 39 38 38 38 38 39 39 39 38 38 38 38 38 39 39 39 39 39 39 39 39 40 40 41 41 41 40 39
27 28 28 28 29 29 30 30 31 31 31 30 29 29 29 29 30 31 32 32 31 30 29 28 28 30 31 32 33 34 35 35 36 36 37 37 37 38 38 38 39 38 38 38 38 38 38 38 39 39 39 38 38 38 38 39 39 39 39 39 39 39 40 40 40 41 41 40 39
24 24 25 25 25 26 27 28 29 30 30 30 29 28 28 28 28 29 30 30 29 28 28 28 28 28 28 29 31 32 33 34 34 35 36 37 37 37 38 38 38 38 38 38 37 37 37 37 38 39 39 38 38 38 38 38 38 38 39 39 39 39 39 39 40 40 40 41 40
23 23 23 23 24 24 25 27 28 29 30 31 31 29 28 28 28 29 30 30 29 29 28 28 28 28 28 29 29 30 31 33 33 33 34 36 37 37 37 38 38 38 38 38 37 37 37 37 37 38 38 38 38 38 38 38 38 38 38 38 38 38 38 38 39 39 40 40 40
23 23 23 23 23 24 24 25 26 28 28 29 31 30 30 30 30 31 31 30 30 30 30 28 28 28 28 29 29 29 30 32 32 33 33 35 36 37 37 37 38 38 38 38 37 37 37 37 37 37 38 38 38 38 38 37 37 37 37 38 37 37 37 37 38 38 39 39 41
24 24 24 24 24 24 24 24 24 25 26 27 28 28 28 29 31 31 32 31 31 32 31 30 28 28 28 28 29 29 29 29 31 33 33 34 35 36 37 37 37 37 37 37 37 37 37 37 37 37 37 37 37 37 37 37 37 37 37 37 37 37 37 37 37 37 37 38 40
24 24 24 24 24 24 24 24 24 24 24 24 25 25 26 27 27 28 29 29 28 29 30 30 28 28 27 27 28 28 28 28 30 32 33 34 34 35 37 37 37 37 37 37 36 36 37 37 36 36 36 37 37 37 37 36 36 36 36 36 36 36 36 36 36 36 36 37 38
25 25 24 24 24 24 24 24 24 24 24 24 24 24 25 25 26 26 27 27 27 27 27 28 27 27 27 27 27 27 28 28 29 30 31 31 33 34 36 37 37 37 37 37 37 37 37 36 36 36 35 35 36 36 36 35 35 35 35 35 35 35 36 36 36 36 36 36 37
25 25 25 25 25 25 25 24 24 24 24 24 24 24 24 24 25 25 26 26 27 27 26 26 26 26 26 27 27 27 27 27 28 28 28 29 31 33 34 35 36 36 36 36 36 36 36 36 35 34 34 33 34 35 34 33 34 34 33 33 34 34 35 35 35 35 35 35 36
25 25 25 25 25 25 25 24 24 24 24 24 24 24 24 24 24 24 25 25 26 26 27 27 26 26 26 26 27 26 26 26 27 27 28 28 29 30 31 32 33 33 33 33 33 34 34 34 33 32 31 31 31 31 30 29 29 30 30 29 31 32 33 33 34 34 34 34 35
25 25 25 25 25 25 25 24 24 24 24 24 24 24 24 24 24 24 24 24 25 25 26 26 27 26 26 26 26 26 26 26 27 27 27 27 28 28 30 31 32 33 33 33 34 35 34 33 32 30 29 28 28 28 27 27 27 27 27 26 27 28 29 29 31 32 33 33 33
24 25 25 25 25 25 25 24 24 24 24 24 24 24 24 24 24 24 24 24 24 24 24 25 25 26 26 25 26 26 26 26 26 26 26 26 27 28 28 30 32 33 34 35 35 35 35 34 33 32 29 28 28 27 27 26 26 26 27 26 26 26 26 26 26 28 29 30 32
24 24 25 25 25 25 25 25 24 24 24 24 24 24 24 24 24 24 24 24 24 24 24 24 25 26 27 25 25 25 25 25 25 25 25 25 25 26 28 29 31 33 34 36 36 35 34 34 34 33 31 28 28 28 27 26 26 27 27 27 26 26 25 25 25 25 25 26 28
24 24 24 25 25 25 25 24 24 24 24 24 24 24 24 24 24 24 24 24 24 24 24 24 25 26 26 25 25 25 25 25 25 25 25 25 25 26 26 28 30 33 36 37 36 35 34 33 33 33 32 29 28 27 27 26 26 26 27 26 26 26 27 26 25 25 25 25 26
24 24 24 24 24 24 24 24 24 24 24 24 24 24 24 23 23 24 24 24 24 24 24 24 25 25 25 25 25 25 25 25 26 26 26 25 25 26 26 27 29 33 36 37 36 35 34 33 33 32 32 31 28 27 27 26 26 26 26 25 26 27 27 26 26 25 25 25 25
23 23 24 23 24 24 24 24 24 24 24 24 24 24 23 23 23 23 24 24 24 24 25 24 24 24 24 23 23 23 24 24 24 25 25 24 25 25 26 27 28 32 36 37 36 35 34 33 32 32 31 31 29 28 26 26 26 26 26 26 26 26 26 26 26 26 26 25 25
22 22 23 23 23 23 23 23 23 23 23 23 23 23 23 23 23 23 23 24 24 25 25 24 24 23 23 22 22 22 23 23 23 24 24 24 25 25 25 25 27 31 36 37 36 35 34 33 32 31 31 30 30 28 26 25 25 25 25 26 26 26 26 26 26 26 26 25 25
21 21 22 22 22 22 22 22 23 23 23 23 23 23 23 23 22 22 23 24 24 24 24 24 23 23 23 22 22 22 22 23 23 24 24 24 23 23 24 25 26 30 35 37 36 35 34 33 31 31 30 30 29 28 26 25 25 25 25 25 25 26 26 26 26 26 26 25 25
20 21 21 21 21 21 21 21 22 22 22 22 22 22 22 22 21 22 23 24 24 23 22 23 23 23 23 22 22 22 23 24 24 25 25 24 23 23 23 24 25 30 35 36 36 35 35 33 32 31 30 30 29 27 25 25 25 25 25 25 26 26 26 26 26 26 26 26 26
20 20 21 21 21 21 20 20 21 21 21 21 22 22 22 21 21 21 23 24 24 23 23 22 22 22 22 22 22 23 24 25 24 24 24 24 23 23 23 23 24 29 34 36 36 35 35 34 33 31 30 30 28 26 24 24 24 24 24 25 26 26 27 27 26 27 27 26 27
19 20 20 20 20 20 19 20 20 20 20 21 21 21 21 20 20 21 22 25 24 23 22 22 22 23 23 22 22 23 23 24 24 24 24 25 24 23 23 23 24 28 33 35 35 35 35 35 33 32 30 30 28 25 24 24 24 24 24 24 25 26 26 26 26 27 27 27 27
19 19 19 19 19 19 19 19 19 20 20 20 20 20 20 19 20 21 23 25 23 22 21 22 22 23 23 22 22 23 23 22 23 24 25 25 24 22 21 22 23 27 32 34 34 34 34 34 34 33 31 29 28 26 25 25 25 24 24 24 24 25 25 26 26 26 26 26 27
19 19 19 19 19 18 18 19 19 19 20 20 19 19 19 19 19 20 22 24 21 20 20 21 21 21 22 22 21 22 22 22 23 24 24 25 24 22 21 21 22 25 29 33 33 33 33 33 33 33 31 28 27 27 26 26 26 25 25 25 24 24 24 25 25 25 26 26 27
19 19 19 18 18 18 18 19 19 19 19 19 19 19 19 19 19 20 22 24 21 19 19 19 20 20 21 22 21 21 21 21 23 23 23 23 22 22 21 20 21 24 28 31 32 33 33 33 33 33 31 28 27 27 26 25 25 25 25 24 24 24 24 24 24 24 25 25 26
19 18 18 18 18 18 18 18 18 18 18 18 18 18 18 19 19 20 22 22 20 19 19 19 19 19 21 23 22 20 20 20 21 22 22 21 22 23 23 21 21 23 26 30 31 32 32 33 33 33 32 29 27 26 25 25 24 24 24 24 23 23 23 24 24 24 24 25 27
18 18 18 17 17 17 17 17 17 17 18 18 17 17 18 19 19 21 21 20 19 18 18 19 19 19 21 24 21 20 19 20 20 21 22 22 23 24 24 22 21 23 25 28 30 31 32 32 33 33 32 29 27 26 25 24 24 24 24 23 23 23 23 24 24 24 24 24 26
18 18 18 17 17 17 16 16 16 17 17 17 17 18 19 20 19 19 19 18 18 18 18 19 19 19 21 24 21 20 19 20 20 20 21 23 23 23 24 22 22 22 23 26 29 30 31 32 32 32 32 29 27 26 25 24 24 24 24 24 23 23 23 23 24 24 24 24 24